Temperature
20 21 21 21 21 22 22 22 21 21 21 21 21 21 21 20 20 20 20 20 20 20 19 19 18 18 18 18 17 17 17 17 16 16 16 16 15 15 15 15 15 15 15 15
21 20 20 20 21 21 21 21 21 21 21 21 21 21 22 21 21 21 21 21 20 20 19 19 18 18 18 18 17 17 17 17 16 16 16 16 16 15 15 15 15 15 15 15
20 20 20 20 21 21 21 21 21 21 21 21 21 21 22 22 21 20 20 20 21 20 20 19 19 19 18 18 18 18 17 17 17 17 16 16 16 16 15 15 15 15 15 15
20 20 20 20 21 21 21 21 21 21 21 21 21 21 22 22 22 21 20 20 20 20 20 20 19 19 19 18 18 18 17 17 17 17 16 16 16 16 15 15 15 15 15 15
20 20 20 20 21 21 21 21 21 21 21 21 22 22 23 23 22 23 22 21 21 20 20 20 19 19 19 19 18 18 17 17 17 17 17 16 16 16 16 15 15 15 15 15
20 20 21 21 21 21 21 21 21 21 22 21 22 22 23 23 23 23 23 22 21 21 20 20 19 19 19 19 18 18 18 17 17 17 17 16 16 16 16 16 15 15 15 15
21 21 20 20 21 21 21 21 21 21 21 21 22 22 23 24 24 24 23 23 22 21 21 20 20 19 19 19 19 18 18 18 17 17 17 17 16 16 16 16 15 15 15 15
21 21 21 21 21 21 22 22 22 21 21 22 22 23 24 24 23 23 23 22 22 21 21 21 20 20 19 19 19 19 18 18 18 17 17 17 17 16 16 16 15 15 15 15
22 21 21 21 21 22 22 22 23 22 22 22 23 23 24 24 24 23 23 23 22 22 21 21 20 20 20 20 19 19 19 18 18 18 17 17 17 16 16 16 16 15 15 15
23 22 21 21 21 21 22 22 22 22 22 22 23 23 24 24 24 24 23 23 22 21 21 21 20 20 20 20 20 19 19 18 18 18 17 17 17 17 16 16 16 16 15 15
23 22 21 21 21 22 22 22 22 22 22 22 22 23 24 24 24 24 23 23 22 21 21 21 20 20 20 20 20 19 19 18 18 18 17 17 17 17 16 16 16 16 15 15
22 23 22 22 22 22 22 23 23 22 22 23 23 23 24 24 23 23 23 22 22 21 20 20 20 20 20 20 20 19 19 19 18 18 17 17 17 17 16 16 16 16 15 15
22 22 22 22 22 22 22 22 22 23 23 23 23 23 24 24 23 22 22 22 21 20 20 20 20 20 20 20 20 19 19 19 18 18 18 17 17 17 16 16 16 16 15 15
22 23 23 22 22 23 22 22 22 22 23 23 23 23 24 24 24 23 22 21 21 20 20 19 19 20 20 20 19 19 19 19 18 18 18 17 17 17 16 16 16 16 15 15
23 23 23 23 23 22 22 22 22 22 23 23 23 23 24 24 23 22 21 21 20 20 19 19 19 19 19 19 19 19 19 19 18 18 18 17 17 17 16 16 16 16 15 15
23 23 23 23 23 22 22 22 22 22 22 23 23 23 24 23 22 22 22 21 20 20 20 19 19 19 20 19 19 19 19 19 18 18 18 17 17 16 16 16 16 15 15 15
23 23 23 23 23 22 22 23 23 23 23 23 23 24 24 23 22 22 21 21 20 20 19 19 19 20 20 20 19 19 19 18 18 18 17 17 17 16 16 16 16 15 15 15
23 23 23 23 22 21 23 23 23 22 23 23 23 23 23 22 21 20 20 20 20 20 19 19 19 19 19 19 19 19 18 18 18 17 17 17 17 16 16 16 16 15 15 15
23 23 22 22 22 22 23 23 22 23 23 23 23 23 22 21 21 21 20 19 19 19 19 19 19 19 19 19 19 18 18 18 17 17 17 17 17 16 16 16 15 15 15 15
21 22 23 22 22 22 23 23 22 23 23 23 23 23 22 22 23 23 20 19 19 19 19 19 19 19 19 19 18 18 18 17 17 17 17 16 16 16 16 15 15 15 15 14
21 21 22 22 22 23 23 21 21 22 23 23 22 22 22 22 23 21 19 19 19 19 19 19 19 19 19 18 18 18 17 17 17 17 16 16 16 16 15 15 15 14 14 14
22 22 22 22 22 22 22 21 23 23 23 22 22 21 21 20 19 19 19 19 19 19 19 19 19 19 18 18 18 17 17 17 16 16 16 16 16 15 15 15 14 14 14 13
22 22 23 23 23 22 20 21 21 21 21 21 21 20 20 19 19 18 18 18 18 18 18 18 18 18 18 17 17 17 16 16 16 16 16 15 15 15 14 14 14 14 13 13
21 20 21 22 22 21 20 19 19 19 20 20 20 19 19 19 18 18 18 18 18 18 18 18 18 17 17 17 17 16 16 15 15 15 15 15 14 14 14 14 13 13 13 12
21 20 21 21 22 20 19 19 19 19 19 19 19 19 18 18 18 18 17 17 17 17 17 17 17 17 17 16 16 15 15 15 15 14 14 14 14 13 13 13 13 13 12 12
20 20 21 22 22 21 21 19 19 18 18 18 18 18 18 18 18 17 17 17 17 17 17 16 16 16 16 15 15 15 14 14 14 14 14 13 13 13 12 12 12 12 12 11
Wind_Speed
2 4 6 5 3 4 7 8 7 5 5 6 6 6 7 10 11 11 11 11 11 9 8 8 8 8 8 7 7 7 7 7 6 4 3 3 3 3 3 4 5 5 6 6
5 5 4 4 5 7 8 8 7 6 5 4 5 5 6 8 10 11 11 11 11 10 10 9 10 9 9 9 8 8 7 7 6 4 3 2 3 3 3 3 4 5 5 6
5 5 4 5 6 7 6 7 7 6 6 5 4 4 6 7 8 9 10 11 11 11 11 11 11 11 10 10 9 8 8 7 7 6 4 4 3 3 3 3 3 3 4 5
5 4 5 5 5 6 5 5 6 7 6 4 4 4 7 8 10 11 12 12 13 12 12 11 11 12 12 11 10 9 8 7 7 7 6 5 3 2 2 2 2 3 3 4
4 4 5 4 4 4 4 4 4 4 3 3 4 3 5 9 10 12 13 14 14 14 13 12 12 12 11 11 10 9 9 8 7 7 6 5 3 3 3 3 3 2 3 3
5 3 1 3 4 5 6 6 4 3 2 3 4 4 4 7 10 10 12 13 14 13 13 13 12 11 10 10 10 9 9 8 8 8 7 6 5 4 4 4 3 2 2 2
5 4 3 3 5 5 6 5 4 4 4 2 3 4 2 3 6 9 11 12 13 13 13 13 13 13 12 12 11 11 11 10 9 9 8 7 6 6 5 4 3 2 2 2
5 5 5 4 3 4 6 5 2 2 3 3 4 3 0 1 3 6 9 10 11 12 13 13 14 13 12 12 12 12 12 11 10 10 9 8 7 5 4 4 3 2 2 2
3 4 4 3 2 3 4 3 2 0 2 2 3 2 1 2 3 4 7 9 11 12 13 13 13 13 13 12 13 13 12 11 11 10 9 8 7 6 5 5 4 3 2 2
2 4 4 4 3 1 2 1 2 2 2 2 3 3 2 2 2 4 6 8 10 10 12 12 12 12 12 11 11 11 12 11 11 10 9 7 7 6 5 5 4 4 3 3
2 3 5 4 4 3 4 4 3 1 2 1 2 2 2 0 1 2 4 7 8 9 10 11 11 11 11 10 10 11 11 11 10 10 9 8 7 7 6 5 5 4 4 4
2 1 3 3 1 2 3 3 4 2 1 2 1 1 2 1 2 1 2 4 6 8 9 10 10 11 10 10 10 11 11 10 10 9 9 8 7 7 7 6 5 5 4 4
4 3 3 4 4 4 3 4 4 3 3 3 3 1 2 1 1 1 1 3 5 7 8 9 10 10 10 10 10 10 10 10 9 9 9 9 8 7 7 6 6 5 5 4
3 3 3 1 1 2 4 6 7 6 4 4 4 3 3 2 2 1 1 3 5 7 8 9 9 10 9 10 10 10 10 9 10 9 9 9 8 8 7 6 6 6 5 5
3 3 3 3 1 2 4 6 7 8 7 6 5 5 5 4 3 3 1 3 5 6 7 9 9 9 9 9 9 9 9 9 10 10 10 9 8 7 7 7 6 6 5 5
4 4 3 4 3 4 5 6 8 8 8 8 8 7 4 3 2 2 2 4 6 6 7 8 9 9 9 10 10 9 9 9 10 10 10 9 8 8 7 7 7 6 5 5
5 4 4 4 2 4 5 5 7 7 7 8 8 5 3 2 2 2 2 4 5 6 6 7 8 9 9 9 10 10 9 9 9 9 9 8 8 8 8 7 7 7 6 6
6 6 4 4 4 5 1 0 3 5 6 7 7 6 4 3 2 2 2 3 4 4 5 6 6 7 8 8 8 8 9 9 9 9 9 8 9 9 8 7 7 7 6 6
6 6 5 5 6 5 3 3 4 5 4 4 5 4 3 2 2 1 1 2 2 3 3 4 5 5 7 7 8 8 8 8 8 8 8 8 9 8 8 8 8 7 6 6
4 6 6 6 7 6 2 2 3 4 4 2 3 3 4 4 3 1 2 2 2 2 2 3 4 5 6 7 8 8 8 8 8 7 7 7 8 8 8 8 7 6 6 6
6 6 8 9 8 6 1 3 5 5 1 1 3 3 4 4 1 2 3 3 3 3 3 4 4 4 5 6 8 8 7 7 6 6 6 6 7 7 7 6 6 6 5 5
7 7 8 8 8 6 3 6 5 3 2 1 2 3 4 2 1 2 3 3 3 3 4 4 5 4 4 5 7 7 6 5 5 5 5 5 6 5 5 5 5 5 5 5
7 7 5 6 5 2 3 5 4 4 3 2 2 2 3 3 3 2 3 3 3 3 4 4 5 5 4 4 5 5 5 4 5 5 5 5 5 5 5 5 5 5 5 4
6 4 5 7 7 6 5 6 5 5 5 4 3 3 4 4 4 4 3 3 4 4 4 4 4 5 4 4 4 3 4 4 5 5 5 4 5 4 4 4 4 4 4 4
6 6 7 9 8 5 5 5 5 3 3 3 3 3 5 5 5 5 4 4 3 3 4 4 4 4 4 4 3 3 3 4 5 5 4 4 4 4 4 3 2 3 3 3
8 8 9 8 7 6 5 3 3 3 3 3 3 3 4 5 6 5 4 3 4 4 4 4 4 4 3 4 3 3 3 4 5 4 4 3 3 3 3 3 3 1 0 1
Wind_Direction
94 143 142 149 169 148 149 148 141 135 146 165 167 168 173 180 184 187 188 188 188 192 186 181 180 177 177 177 174 166 168 165 162 156 153 137 113 99 84 68 60 53 46 43
125 104 100 124 141 143 145 144 139 131 148 170 164 181 191 191 198 200 200 196 194 194 190 187 188 186 188 184 183 179 177 176 175 168 156 136 117 108 92 81 68 54 50 45
118 107 128 144 145 149 153 159 151 143 143 156 162 190 195 195 204 208 213 211 204 201 197 190 192 191 191 190 189 187 184 179 180 173 158 144 136 145 132 107 78 56 53 50
105 137 154 157 155 159 144 146 154 160 171 167 198 191 197 194 201 209 211 211 212 208 204 196 194 194 194 193 191 190 185 183 179 178 184 181 177 153 128 112 102 89 69 60
120 141 155 145 143 153 131 138 146 164 173 175 196 215 184 191 204 207 208 208 212 209 205 201 200 197 195 190 188 190 184 184 183 186 186 194 183 158 141 134 124 108 88 69
103 104 108 116 112 132 139 141 134 167 200 201 199 225 190 195 213 210 205 205 208 207 205 205 201 195 192 188 186 187 187 186 187 190 191 194 183 173 161 161 151 140 118 97
125 128 135 146 141 150 179 181 174 181 189 179 170 231 244 205 220 217 208 203 202 200 199 199 196 194 191 189 189 189 189 189 190 194 196 194 191 186 184 181 171 168 139 121
150 148 169 188 202 187 197 221 222 174 168 153 183 223 198 72 219 216 209 201 196 194 196 196 194 194 192 191 191 192 193 194 191 195 195 194 191 194 190 193 190 181 160 133
154 130 145 186 219 220 194 208 292 291 164 171 171 185 188 163 172 182 192 194 194 195 194 195 194 193 192 191 192 193 194 193 192 194 193 193 192 194 194 194 194 186 180 160
153 140 151 159 180 178 281 209 208 231 186 168 171 190 172 145 155 174 187 193 194 193 192 193 192 192 192 191 190 192 195 194 192 193 193 193 195 194 196 199 194 189 185 179
194 154 149 175 212 191 181 198 213 231 278 252 172 127 53 43 348 219 198 193 197 194 191 189 188 189 187 185 185 188 191 192 191 194 194 192 192 194 194 198 197 197 196 193
196 177 162 177 160 279 241 236 225 236 217 261 261 106 69 327 318 278 221 201 196 191 187 184 182 180 181 183 186 188 189 190 190 191 192 193 190 193 197 198 200 199 197 199
172 205 176 167 174 191 217 222 229 250 257 245 240 150 92 4 298 273 233 195 182 178 179 179 180 181 182 184 185 187 189 189 185 185 189 190 191 193 198 200 198 199 199 197
201 223 251 269 333 207 208 205 213 226 247 252 254 271 288 297 288 283 223 184 172 173 177 180 182 184 184 185 186 186 188 187 183 183 189 194 195 194 197 195 194 198 201 202
218 239 238 272 276 230 234 220 211 224 249 264 271 274 283 294 296 293 240 177 173 174 177 183 184 184 185 187 188 188 187 186 186 187 193 197 197 195 195 191 192 193 196 207
218 237 233 238 233 227 243 240 227 232 246 254 265 274 283 296 284 256 200 179 181 180 182 184 187 187 189 190 191 188 188 188 189 193 197 194 195 193 195 195 195 194 196 206
203 225 242 251 231 228 249 243 229 228 232 237 250 257 258 279 271 249 210 188 191 192 190 190 191 192 193 193 191 188 189 186 190 195 195 191 193 196 200 197 196 198 200 203
217 222 240 255 239 247 297 45 239 244 255 250 256 263 260 266 277 274 245 216 207 202 197 196 197 194 194 191 186 183 180 184 189 193 193 191 193 196 198 198 201 207 208 203
232 218 228 246 251 258 252 229 222 234 254 249 241 238 225 181 167 159 143 197 206 200 198 196 196 190 187 184 181 177 179 183 187 192 194 193 194 194 194 198 202 206 207 207
199 224 233 234 249 257 250 165 199 243 247 235 223 213 200 192 217 171 115 135 152 156 162 165 166 170 172 173 172 174 177 182 190 194 195 192 192 193 196 199 201 201 205 212
189 205 226 237 247 255 250 154 177 223 269 155 225 216 199 207 299 98 116 119 116 120 129 140 145 148 156 160 166 174 178 188 192 189 187 186 187 192 196 196 196 197 200 208
219 218 223 229 239 243 150 166 208 285 339 263 240 225 210 205 133 136 134 126 123 120 122 132 136 132 137 153 165 171 179 184 176 174 178 182 181 181 185 189 193 196 197 205
225 234 236 233 248 298 191 226 269 291 284 278 250 221 200 192 187 176 162 148 138 134 130 135 136 130 131 149 166 171 172 167 163 165 172 176 174 176 181 185 188 191 197 210
211 213 230 244 252 258 255 254 257 261 265 270 257 228 202 196 189 181 171 156 147 145 141 142 142 138 134 143 160 171 160 161 163 165 169 171 171 171 175 182 190 193 198 212
223 195 227 249 257 260 246 243 246 252 259 256 250 228 210 195 189 180 169 161 156 152 151 152 152 146 144 144 150 156 156 163 169 168 166 169 168 167 171 173 191 204 203 222
218 218 231 250 253 254 253 249 248 249 251 245 232 220 205 191 182 177 172 163 159 156 153 151 148 150 152 150 146 147 155 164 170 169 167 168 168 170 174 174 170 78 278 125
Height
1526 1526 1527 1528 1528 1528 1529 1533 1538 1540 1540 1541 1543 1545 1548 1551 1553 1555 1557 1559 1561 1564 1566 1568 1570 1572 1573 1574 1576 1577 1578 1578 1579 1580 1580 1580 1580 1580 1579 1579 1578 1577 1576 1575
1527 1530 1530 1530 1530 1530 1531 1535 1539 1541 1541 1542 1544 1545 1545 1548 1551 1553 1554 1557 1559 1562 1565 1567 1569 1570 1572 1574 1575 1577 1578 1578 1579 1579 1580 1580 1581 1580 1580 1579 1578 1578 1577 1576
1528 1533 1533 1532 1532 1532 1533 1535 1538 1541 1542 1542 1545 1547 1545 1546 1549 1551 1553 1555 1557 1560 1562 1565 1567 1569 1571 1573 1574 1576 1577 1578 1578 1579 1580 1580 1580 1581 1580 1580 1579 1578 1578 1577
1530 1533 1533 1532 1532 1531 1537 1535 1537 1539 1542 1544 1545 1550 1542 1541 1545 1548 1550 1552 1554 1557 1560 1562 1565 1567 1569 1571 1573 1575 1576 1577 1578 1579 1580 1581 1581 1581 1581 1580 1580 1579 1578 1577
1532 1532 1533 1534 1534 1533 1536 1536 1537 1538 1541 1543 1543 1545 1539 1537 1540 1541 1545 1548 1550 1553 1556 1559 1562 1564 1567 1569 1571 1573 1575 1576 1577 1578 1579 1580 1581 1581 1581 1580 1580 1580 1579 1578
1532 1534 1534 1534 1535 1535 1537 1538 1539 1539 1540 1549 1542 1543 1540 1533 1534 1535 1539 1543 1546 1550 1553 1556 1559 1562 1565 1567 1569 1571 1573 1575 1576 1577 1578 1579 1580 1580 1580 1580 1580 1580 1579 1579
1533 1534 1535 1536 1536 1537 1536 1539 1547 1549 1550 1547 1538 1541 1535 1526 1528 1531 1535 1538 1542 1546 1549 1553 1556 1559 1562 1564 1567 1569 1571 1573 1574 1576 1577 1578 1579 1579 1580 1580 1580 1580 1580 1579
1533 1537 1533 1534 1534 1534 1534 1534 1542 1549 1548 1542 1539 1537 1528 1525 1528 1530 1532 1536 1539 1542 1546 1549 1552 1556 1559 1562 1564 1567 1569 1571 1572 1574 1576 1577 1578 1578 1579 1579 1579 1579 1579 1579
1528 1534 1532 1533 1533 1532 1532 1532 1531 1535 1536 1540 1535 1530 1525 1524 1526 1528 1530 1533 1536 1539 1543 1546 1549 1553 1556 1559 1561 1564 1567 1569 1570 1572 1574 1575 1576 1577 1578 1578 1578 1578 1578 1578
1523 1531 1532 1533 1534 1534 1532 1530 1532 1535 1543 1544 1538 1532 1528 1524 1524 1526 1528 1531 1534 1537 1540 1543 1546 1550 1553 1556 1559 1562 1564 1566 1568 1570 1572 1573 1574 1575 1576 1577 1577 1577 1577 1577
1522 1527 1533 1532 1532 1531 1533 1533 1532 1532 1533 1539 1543 1535 1521 1523 1524 1524 1526 1529 1532 1534 1537 1540 1543 1547 1550 1553 1556 1559 1561 1564 1566 1568 1570 1571 1572 1573 1574 1575 1575 1576 1576 1576
1524 1524 1530 1530 1529 1529 1528 1528 1529 1535 1535 1533 1535 1534 1520 1522 1524 1525 1526 1528 1530 1532 1535 1538 1541 1544 1547 1550 1553 1556 1558 1561 1563 1565 1567 1569 1570 1571 1572 1573 1574 1574 1574 1574
1524 1526 1532 1534 1534 1531 1529 1528 1528 1529 1529 1532 1535 1533 1520 1522 1523 1524 1526 1527 1529 1531 1534 1536 1539 1542 1545 1547 1550 1553 1556 1558 1560 1562 1564 1566 1568 1569 1570 1571 1572 1572 1573 1573
1524 1522 1527 1534 1529 1525 1527 1528 1529 1528 1530 1530 1528 1526 1520 1520 1522 1524 1525 1526 1528 1530 1532 1534 1536 1539 1542 1545 1547 1550 1553 1555 1557 1559 1561 1563 1565 1566 1568 1569 1569 1570 1571 1571
1523 1522 1522 1522 1522 1524 1524 1525 1527 1527 1525 1526 1523 1523 1520 1519 1521 1523 1524 1525 1527 1528 1530 1532 1534 1536 1539 1542 1544 1547 1549 1552 1554 1556 1558 1560 1562 1564 1565 1566 1567 1568 1568 1569
1522 1521 1521 1523 1522 1523 1524 1523 1523 1525 1524 1523 1522 1522 1518 1520 1521 1521 1522 1524 1525 1527 1528 1530 1532 1534 1536 1539 1541 1544 1546 1548 1551 1553 1555 1557 1559 1561 1562 1563 1564 1565 1566 1566
1519 1520 1523 1523 1521 1523 1525 1519 1520 1520 1519 1520 1520 1517 1517 1518 1520 1521 1521 1522 1523 1525 1526 1528 1530 1531 1534 1536 1538 1540 1542 1545 1547 1549 1551 1553 1555 1557 1559 1560 1561 1562 1563 1563
1517 1518 1520 1522 1524 1534 1520 1515 1517 1518 1517 1516 1516 1516 1517 1518 1520 1520 1520 1521 1522 1523 1524 1526 1528 1530 1532 1534 1536 1538 1540 1542 1544 1546 1548 1549 1551 1553 1555 1557 1558 1559 1560 1560
1517 1517 1520 1522 1525 1522 1517 1515 1516 1517 1515 1513 1514 1515 1516 1517 1518 1518 1519 1519 1520 1521 1522 1524 1525 1527 1529 1531 1533 1535 1537 1538 1540 1542 1544 1546 1548 1550 1551 1553 1554 1556 1557 1557
1519 1517 1517 1521 1526 1527 1516 1513 1515 1517 1515 1511 1512 1513 1515 1516 1514 1516 1518 1518 1519 1519 1520 1522 1523 1525 1527 1528 1530 1532 1534 1535 1537 1539 1541 1543 1544 1546 1548 1549 1551 1552 1553 1554
1516 1517 1518 1518 1520 1513 1510 1513 1515 1520 1514 1511 1511 1513 1514 1514 1514 1516 1517 1517 1518 1519 1519 1520 1522 1523 1524 1526 1528 1530 1531 1533 1535 1536 1538 1540 1541 1543 1544 1546 1548 1549 1550 1551
1509 1513 1514 1515 1519 1516 1510 1512 1512 1510 1509 1510 1511 1512 1513 1514 1514 1515 1516 1517 1517 1518 1519 1520 1521 1522 1523 1524 1526 1527 1529 1531 1532 1534 1535 1537 1538 1540 1541 1543 1544 1545 1546 1547
1506 1506 1505 1507 1509 1507 1509 1509 1509 1509 1509 1510 1510 1511 1511 1512 1513 1514 1515 1516 1517 1518 1518 1519 1520 1521 1522 1523 1524 1526 1527 1529 1530 1531 1533 1534 1536 1537 1538 1539 1540 1542 1542 1543
1504 1508 1507 1505 1504 1506 1507 1507 1508 1508 1508 1509 1509 1509 1510 1511 1512 1513 1514 1515 1516 1517 1518 1518 1519 1520 1521 1521 1522 1524 1525 1526 1528 1529 1530 1532 1533 1534 1535 1536 1537 1538 1539 1539
1500 1504 1503 1503 1502 1504 1504 1505 1505 1506 1506 1506 1507 1507 1508 1509 1510 1511 1512 1513 1514 1515 1516 1517 1518 1518 1519 1520 1521 1522 1523 1524 1525 1527 1528 1529 1530 1531 1532 1533 1533 1534 1535 1535
1499 1499 1499 1498 1498 1500 1501 1503 1503 1504 1504 1504 1504 1505 1506 1506 1507 1509 1510 1511 1512 1513 1514 1515 1516 1516 1517 1518 1519 1519 1520 1522 1523 1524 1525 1526 1527 1528 1529 1529 1530 1530 1531 1531